[[{"header":{"parameterUnit":"m.s-1","parameterCategory":1,"la1":30.2991,"la2":30.254,"lo1":-89.0895,"lo2":-89.0444,"dy":0.0017,"dx":0.0017,"nx":28,"ny":28,"refTime":"2025-03-16T09:00:00:Z","depth":0,"parameterNumber":2,"parameterNumberName":"U-component_of_WINDS"},"data":[0,0,0,0,0,0,0,0,0,0,0,0,0,0,0,0,0,0,0,0,0,0,0,0,0,0,0,0,0,0,0,0,0,0,0,0,0,0,0,0,0,0,0,0,0,0,0,0,0,0,0,0,0,0,0,0,0,0,2.6516,2.6517,0,2.6612,2.6613,2.6614,2.6621,2.662,2.6619,2.6618,2.6719,2.6723,2.6727,0,0,0,0,0,0,0,0,0,0,0,0,0,2.6342,2.6346,2.6515,2.6517,2.6518,2.6612,2.6613,2.6614,2.6622,2.662,2.6619,2.6618,2.6718,2.6722,2.6727,0,0,0,0,0,0,0,0,0,0,0,0,0,2.6426,2.6347,2.6515,2.6533,2.6535,2.6611,2.6613,2.6615,2.6622,2.662,2.6619,2.6617,2.6717,2.6722,2.6727,2.6793,0,0,2.6744,2.6747,0,0,0,0,0,0,0,0,2.6421,2.6432,2.6529,2.6532,2.6535,2.6603,2.6589,2.6675,2.6622,2.6589,2.6618,2.6616,2.6682,2.669,2.6712,2.6798,2.6803,2.6745,2.6748,2.6751,2.6752,0,0,0,0,0,0,0,2.6416,2.6428,2.6554,2.653,2.6534,2.6537,2.6547,2.6605,2.6643,2.6592,2.6593,2.6604,2.6683,2.6707,2.6714,2.6804,2.6745,2.675,2.6753,2.6755,2.6953,2.6955,0,0,0,0,0,0,2.6406,2.6423,2.6551,2.6557,2.6473,2.6542,2.6553,2.6583,2.6643,2.665,2.6605,2.6604,2.6698,2.6708,2.6718,2.6802,2.675,2.6756,2.6759,2.6951,2.6954,2.6956,0,0,0,0,0,0,2.6402,2.6417,2.6547,2.649,2.6507,2.6546,2.658,2.6585,2.6609,2.6653,2.666,2.6622,2.6697,2.671,2.6775,2.6805,2.6758,2.6763,2.6949,2.6952,2.6955,2.6968,0,0,0,0,0,0,2.6397,2.6416,2.644,2.6491,2.651,2.6601,2.6581,2.6588,2.6618,2.6617,2.667,2.6677,2.6697,2.6767,2.6781,2.6812,2.6767,2.6947,2.695,2.6954,2.6965,2.6971,2.6976,0,0,0,0,0,2.6391,2.6439,2.6441,2.6456,2.6541,2.6603,2.6614,2.6635,2.662,2.6646,2.6675,2.6676,2.68,2.6774,2.6789,2.6822,2.6945,2.6949,2.6954,2.6963,2.697,2.6976,0,0,0,0,0,0,2.6391,2.6446,2.6449,2.6515,2.6554,2.6604,2.6636,2.6641,2.6686,2.6683,2.6708,2.672,2.6785,2.681,2.678,2.6891,2.6871,2.6879,2.6872,2.688,2.6885,2.6878,2.6772,0,0,0,0,0,2.6399,2.6443,2.649,2.6544,2.6563,2.6597,2.6624,2.6637,2.6679,2.6696,2.6729,2.6771,2.682,2.6851,2.6898,2.6969,2.6982,2.7,2.7005,2.7009,2.7016,2.7059,2.7068,2.697,2.697,2.697,0,0,2.6415,2.6451,2.6477,2.6545,2.6576,2.6624,2.661,2.666,2.6696,2.6703,2.6767,2.6794,2.6842,2.6911,2.6943,2.6934,2.7046,2.7015,2.7018,2.7023,2.7064,2.7074,2.7082,2.6973,2.6973,2.6972,0,0,2.647,2.65,2.655,2.6583,2.6631,2.6654,2.6666,2.6715,2.6733,2.6798,2.6805,2.6849,2.6931,2.6967,2.6995,2.7066,2.707,2.7081,2.711,2.7151,2.7159,2.7166,2.7194,2.7203,2.7087,2.7087,2.7087,0,2.6484,2.6554,2.6575,2.6626,2.6656,2.6665,2.6717,2.6748,2.681,2.6832,2.6821,2.6926,2.6959,2.7038,2.7056,2.7078,2.7095,2.7075,2.7156,2.7163,2.717,2.7197,2.7207,2.7089,2.7088,2.7088,2.7088,0,2.6571,2.662,2.6655,2.6714,2.6749,2.68,2.683,2.6863,2.6874,2.6898,2.6965,2.7006,2.7062,2.7082,2.7092,2.7164,2.7157,2.7151,2.7131,2.718,2.7206,2.7216,2.709,2.709,2.7089,2.7089,0,0,2.6627,2.6699,2.6712,2.674,2.6796,2.6835,2.6888,2.6943,2.6972,2.7015,2.7062,2.7133,2.7128,2.7161,2.7176,2.7212,2.7269,2.7202,2.7203,2.7214,2.7353,2.7359,2.737,2.7272,2.7274,2.7275,2.735,0,2.6689,2.6782,2.6804,2.6884,2.6932,2.6942,2.6989,2.7029,2.7054,2.7099,2.7127,2.7178,2.7166,2.7187,2.7223,2.7254,2.7297,2.7249,2.7317,2.7319,2.7306,2.7383,2.7388,2.7457,2.736,2.7362,2.7363,0,2.6773,2.6819,2.6904,2.6957,2.6977,2.7018,2.7072,2.7114,2.7162,2.7178,2.7215,2.7227,2.7285,2.7262,2.7344,2.7311,2.734,2.736,2.7363,2.7371,2.7345,2.7395,2.7479,2.749,2.7378,2.7377,2.7376,0,2.6808,2.6891,2.6954,2.6977,2.7039,2.7068,2.7096,2.7141,2.7174,2.7222,2.7244,2.7298,2.7328,2.7371,2.7398,2.7378,2.7479,2.7457,2.7495,2.7495,2.7516,2.7515,2.7608,2.7533,2.7533,2.7533,2.7532,0,2.6876,2.6929,2.697,2.7009,2.7069,2.7094,2.7154,2.7181,2.7222,2.7268,2.7281,2.7324,2.7357,2.7405,2.7427,2.7493,2.7506,2.7522,2.7527,2.7522,2.752,2.7542,2.7539,2.7535,2.7535,2.7534,2.7534,0,2.6925,2.6955,2.7024,2.7078,2.7093,2.7135,2.7182,2.7221,2.7247,2.7305,2.732,2.7361,2.7419,2.7451,2.7523,2.7538,2.7612,2.7614,2.7596,2.7599,2.7636,2.7633,2.7748,2.7765,2.7677,2.7678,2.7679,0,2.6967,2.7008,2.7066,2.7098,2.7126,2.7176,2.721,2.7237,2.7273,2.7331,2.7364,2.7423,2.7471,2.7564,2.7601,2.7657,2.7662,2.7699,2.7671,2.7665,2.7665,2.7663,2.7669,2.7704,2.7704,2.7705,2.7706,0,2.7039,2.7052,2.71,2.7155,2.7195,2.7239,2.7283,2.7308,2.7343,2.7383,2.7442,2.748,2.7555,2.7614,2.7674,2.7704,2.7712,2.7714,2.7726,2.7722,2.771,2.7719,2.7611,2.7711,2.7711,2.771,2.771,2.771,2.7087,2.7125,2.7173,2.7227,2.7263,2.7304,2.7344,2.7376,2.7425,2.7488,2.7502,2.7565,2.7615,2.7696,2.7728,2.778,2.7773,2.779,2.7795,2.7799,2.7802,2.7701,2.7791,2.779,2.779,2.779,2.779,0,2.7162,2.7193,2.7243,2.7304,2.7348,2.735,2.74,2.7436,2.7492,2.7537,2.7585,2.7655,2.7713,2.7755,2.7815,2.7849,2.7854,2.7864,2.7862,2.787,2.7803,2.7787,2.7858,2.7858,2.7858,2.7858,2.7858,2.7858,2.7206,2.7271,2.729,2.7375,2.7406,2.7468,2.7497,2.7536,2.7572,2.7649,2.7698,2.7725,2.777,2.7834,2.7889,2.79,2.7922,2.7932,2.7944,2.7881,2.7874,2.7867,2.7853,2.7936,2.7936,2.8007,2.8007,2.8008]},{"header":{"parameterUnit":"m.s-1","parameterCategory":1,"la1":30.2991,"la2":30.254,"lo1":-89.0895,"lo2":-89.0444,"dy":0.0017,"dx":0.0017,"nx":28,"ny":28,"refTime":"2025-03-16T09:00:00:Z","depth":0,"parameterNumber":3,"parameterNumberName":"V-component_of_WINDS"},"data":[0,0,0,0,0,0,0,0,0,0,0,0,0,0,0,0,0,0,0,0,0,0,0,0,0,0,0,0,0,0,0,0,0,0,0,0,0,0,0,0,0,0,0,0,0,0,0,0,0,0,0,0,0,0,0,0,0,0,-3.3793,-3.3794,0,-3.3885,-3.3886,-3.3887,-3.396,-3.396,-3.3961,-3.3962,-3.4053,-3.4055,-3.4057,0,0,0,0,0,0,0,0,0,0,0,0,0,-3.368,-3.3682,-3.3793,-3.3794,-3.3796,-3.3885,-3.3886,-3.3888,-3.396,-3.396,-3.3961,-3.3962,-3.4053,-3.4055,-3.4057,0,0,0,0,0,0,0,0,0,0,0,0,0,-3.3746,-3.3682,-3.3793,-3.3842,-3.3848,-3.3885,-3.3886,-3.3888,-3.3959,-3.3961,-3.3962,-3.3963,-3.4052,-3.4055,-3.4057,-3.4052,0,0,-3.4065,-3.4067,0,0,0,0,0,0,0,0,-3.3742,-3.375,-3.3834,-3.3839,-3.3845,-3.3912,-3.388,-3.3943,-3.3959,-3.3917,-3.3962,-3.3963,-3.4005,-3.4012,-3.4027,-3.4056,-3.406,-3.4066,-3.4067,-3.4068,-3.4069,0,0,0,0,0,0,0,-3.3737,-3.3747,-3.383,-3.3835,-3.3842,-3.386,-3.387,-3.3892,-3.3954,-3.3921,-3.3926,-3.3936,-3.4009,-3.4024,-3.4029,-3.4062,-3.4066,-3.4068,-3.407,-3.4071,-3.4094,-3.4094,0,0,0,0,0,0,-3.3725,-3.3742,-3.3827,-3.3832,-3.3795,-3.3861,-3.3873,-3.3889,-3.3954,-3.3965,-3.3935,-3.3939,-3.4019,-3.4026,-3.4033,-3.4032,-3.4068,-3.4071,-3.4072,-3.4095,-3.4094,-3.4093,0,0,0,0,0,0,-3.3723,-3.3732,-3.3823,-3.3789,-3.3802,-3.3862,-3.388,-3.3891,-3.3906,-3.3965,-3.3976,-3.394,-3.402,-3.4029,-3.4048,-3.4036,-3.4072,-3.4074,-3.4097,-3.4095,-3.4094,-3.403,0,0,0,0,0,0,-3.3719,-3.3731,-3.3729,-3.3788,-3.3803,-3.3836,-3.3879,-3.3892,-3.3911,-3.3917,-3.3972,-3.3982,-3.4022,-3.4043,-3.405,-3.4041,-3.4077,-3.4098,-3.4096,-3.4094,-3.4033,-3.4026,-3.402,0,0,0,0,0,-3.3715,-3.3706,-3.3729,-3.3738,-3.3803,-3.3835,-3.3843,-3.389,-3.391,-3.3909,-3.3947,-3.398,-3.4037,-3.4044,-3.4053,-3.4044,-3.4099,-3.4096,-3.4094,-3.4036,-3.4028,-3.4021,0,0,0,0,0,0,-3.3642,-3.3715,-3.374,-3.3751,-3.3786,-3.3847,-3.3847,-3.3879,-3.3909,-3.3913,-3.3969,-3.3981,-3.3994,-3.4021,-3.4028,-3.4044,-3.4072,-3.4072,-3.4025,-3.4018,-3.4011,-3.4004,-3.4079,0,0,0,0,0,-3.3628,-3.3649,-3.3711,-3.3714,-3.3731,-3.3786,-3.3802,-3.3835,-3.3873,-3.3888,-3.3928,-3.3963,-3.399,-3.4005,-3.4033,-3.4038,-3.4052,-3.4037,-3.403,-3.4025,-3.4023,-3.403,-3.4024,-3.4086,-3.4086,-3.4086,0,0,-3.3598,-3.364,-3.3649,-3.3701,-3.3732,-3.3752,-3.3798,-3.3816,-3.3832,-3.3891,-3.3911,-3.3942,-3.3985,-3.3998,-3.4005,-3.4021,-3.401,-3.4022,-3.4017,-3.4019,-3.4027,-3.4021,-3.4016,-3.4085,-3.4085,-3.4085,0,0,-3.3553,-3.3587,-3.3594,-3.3625,-3.3673,-3.371,-3.3712,-3.3769,-3.3792,-3.3814,-3.3859,-3.3878,-3.3922,-3.3952,-3.3972,-3.3943,-3.3975,-3.395,-3.3917,-3.3922,-3.3918,-3.3913,-3.3903,-3.3899,-3.3949,-3.3949,-3.3949,0,-3.3508,-3.3541,-3.3593,-3.361,-3.3632,-3.3689,-3.3697,-3.3725,-3.3778,-3.3792,-3.3809,-3.3867,-3.39,-3.3921,-3.3915,-3.393,-3.3934,-3.3943,-3.3914,-3.3911,-3.3908,-3.3898,-3.3894,-3.3945,-3.3946,-3.3946,-3.3946,0,-3.3485,-3.3507,-3.3507,-3.3559,-3.3581,-3.3593,-3.3648,-3.3664,-3.3697,-3.3732,-3.3754,-3.3797,-3.3835,-3.3843,-3.3873,-3.3869,-3.3877,-3.3904,-3.3933,-3.3897,-3.389,-3.3887,-3.3941,-3.3942,-3.3943,-3.3944,0,0,-3.3393,-3.3477,-3.3476,-3.3501,-3.356,-3.3578,-3.3594,-3.3632,-3.3645,-3.3682,-3.3696,-3.3734,-3.376,-3.3783,-3.3819,-3.3824,-3.3799,-3.385,-3.3852,-3.3839,-3.3797,-3.3776,-3.3771,-3.3822,-3.3821,-3.3821,-3.3793,0,-3.3357,-3.3388,-3.3438,-3.3453,-3.3475,-3.3531,-3.3545,-3.3583,-3.3617,-3.3641,-3.3679,-3.3705,-3.3737,-3.3752,-3.376,-3.38,-3.3791,-3.3803,-3.3835,-3.3836,-3.3821,-3.3767,-3.3744,-3.3716,-3.3791,-3.379,-3.379,0,-3.3317,-3.3352,-3.337,-3.343,-3.3441,-3.3452,-3.3493,-3.3515,-3.356,-3.3585,-3.3613,-3.3652,-3.3673,-3.3701,-3.373,-3.3737,-3.3754,-3.3776,-3.3776,-3.378,-3.3809,-3.3768,-3.3708,-3.3703,-3.3786,-3.3786,-3.3786,0,-3.3249,-3.33,-3.3318,-3.3338,-3.3408,-3.3415,-3.3445,-3.3491,-3.3512,-3.3547,-3.3562,-3.3599,-3.3618,-3.3647,-3.3695,-3.3711,-3.372,-3.3751,-3.3741,-3.3739,-3.3738,-3.3737,-3.3679,-3.375,-3.3751,-3.3751,-3.3751,0,-3.3202,-3.321,-3.3289,-3.3299,-3.3312,-3.3369,-3.338,-3.3414,-3.3455,-3.3474,-3.3526,-3.3542,-3.3606,-3.3631,-3.3669,-3.3688,-3.3697,-3.3717,-3.3727,-3.3712,-3.3709,-3.3722,-3.3725,-3.375,-3.375,-3.375,-3.375,0,-3.3126,-3.3178,-3.3202,-3.3267,-3.3284,-3.329,-3.3346,-3.336,-3.3399,-3.3422,-3.3431,-3.3492,-3.3524,-3.3576,-3.3623,-3.3649,-3.366,-3.3678,-3.3645,-3.3651,-3.3637,-3.3637,-3.3584,-3.358,-3.3655,-3.3654,-3.3653,0,-3.3091,-3.31,-3.3167,-3.3184,-3.3213,-3.3239,-3.3261,-3.3319,-3.3341,-3.3394,-3.3401,-3.3437,-3.3469,-3.3517,-3.3566,-3.3602,-3.362,-3.3599,-3.3626,-3.3611,-3.3619,-3.3618,-3.3619,-3.3592,-3.3591,-3.359,-3.3589,0,-3.3025,-3.3052,-3.3082,-3.3123,-3.3149,-3.3183,-3.322,-3.3231,-3.3297,-3.3319,-3.3353,-3.3377,-3.3427,-3.3462,-3.3506,-3.3537,-3.3574,-3.3581,-3.3581,-3.3564,-3.3545,-3.3555,-3.3627,-3.3581,-3.3582,-3.3583,-3.3583,-3.3584,-3.2969,-3.298,-3.303,-3.3063,-3.3097,-3.3131,-3.3147,-3.319,-3.322,-3.3265,-3.3298,-3.333,-3.3377,-3.344,-3.3469,-3.3495,-3.3512,-3.3511,-3.351,-3.3509,-3.3503,-3.3542,-3.3504,-3.3504,-3.3504,-3.3505,-3.3505,0,-3.2905,-3.2941,-3.2971,-3.3022,-3.3048,-3.3084,-3.3128,-3.3147,-3.3175,-3.3216,-3.3248,-3.3288,-3.3323,-3.3376,-3.3416,-3.3427,-3.3445,-3.3435,-3.3434,-3.3441,-3.3486,-3.3483,-3.342,-3.342,-3.342,-3.342,-3.342,-3.342,-3.2875,-3.2895,-3.2928,-3.2967,-3.3004,-3.3036,-3.3058,-3.309,-3.3124,-3.3167,-3.3197,-3.3232,-3.3279,-3.3323,-3.3358,-3.3372,-3.3384,-3.3369,-3.3388,-3.3429,-3.3437,-3.3445,-3.3442,-3.3371,-3.3371,-3.3341,-3.3341,-3.334]}]]